Change the Weather History Date:

Wednesday, September 26, 2012

  Actual Average Record
Temperature  
Mean Temperature 40 °F -  
Max Temperature 51 °F 57 °F 71 °F (2010)
Min Temperature 29 °F 28 °F 20 °F (1985)
Degree Days  
Heating Degree Days 25 22  
Month to date heating degree days 449 483  
Since 1 July heating degree days 1019 1205  
Cooling Degree Days 0 0  
Month to date cooling degree days 0 0  
Year to date cooling degree days 0 0  
Moisture  
Dew Point 31 °F    
Average Humidity 68    
Maximum Humidity 100    
Minimum Humidity 36    
Precipitation  
Precipitation T in 0.03 in 0.29 in (2002)
Month to date precipitation 0.90 0.97  
Year to date precipitation 9.35 9.92  
Sea Level Pressure  
Sea Level Pressure 30.12 in    
Wind  
Wind Speed 4 mph (ENE)    
Max Wind Speed 28 mph    
Max Gust Speed 31 mph    
Visibility 6 miles    
Events Fog , Rain    
T = Trace of Precipitation, MM = Missing Value Source: NWS Daily Summary

Daily Weather History Graph

Daily Weather History Graph

Search for Another Location

Airport or City:

Trip Planner

Search our weather history database for the weather conditions in past years. The results will help you decide how hot, cold, wet, or windy it might be!

Date:

Astronomy

Sep. 26, 2012 Rise Set
Actual Time 6:57 AM MDT 6:54 PM MDT
Civil Twilight 6:30 AM MDT 7:21 PM MDT
Nautical Twilight 5:59 AM MDT 7:52 PM MDT
Astronomical Twilight 5:27 AM MDT 8:24 PM MDT
Moon 4:55 PM MDT (9/26) 3:27 AM MDT (9/26)
Length of Visible Light 12h 51m
Length of Day
11h 57m
Waxing Gibbous, 88% of the Moon is Illuminated
Sep 26
Waxing Gibbous
Sep 29
Full
Oct 8
Last Quarter
Oct 15
New
Oct 21
First Quarter

Hourly Weather History & Observations

Time (MDT) Temp. Windchill Dew Point Humidity Pressure Visibility Wind Dir Wind Speed Gust Speed Precip Events Conditions
12:53 AM 37.0 °F - 35.1 °F 93% 29.92 in 10.0 mi Calm Calm - N/A   Overcast
1:53 AM 36.0 °F - 35.1 °F 97% 29.90 in 10.0 mi Calm Calm - N/A   Overcast
2:07 AM 35.6 °F - 35.6 °F 100% 30.24 in 10.0 mi Calm Calm - N/A   Overcast
2:53 AM 34.0 °F - 33.1 °F 96% 29.89 in 10.0 mi Calm Calm - N/A   Clear
3:04 AM 32.0 °F - 30.2 °F 93% 30.23 in 10.0 mi Calm Calm - N/A   Partly Cloudy
3:15 AM 30.2 °F - 30.2 °F 100% 30.23 in 1.0 mi Calm Calm - N/A   Mist
3:22 AM 30.2 °F - 30.2 °F 100% 30.23 in 0.5 mi Calm Calm - N/A Fog Light Freezing Fog
3:44 AM 30.2 °F 26.7 °F 30.2 °F 100% 30.23 in 2.5 mi NNE 3.5 mph - N/A   Overcast
3:51 AM 30.2 °F 26.7 °F 30.2 °F 100% 30.23 in 6.0 mi NE 3.5 mph - N/A   Overcast
3:53 AM 30.0 °F 25.2 °F 30.0 °F 100% 29.90 in 6.0 mi NE 4.6 mph - N/A   Mostly Cloudy
4:10 AM 30.2 °F 26.7 °F 30.2 °F 100% 30.23 in 0.8 mi West 3.5 mph - N/A   Mostly Cloudy
4:23 AM 30.2 °F - 30.2 °F 100% 30.24 in 0.8 mi Calm Calm - N/A   Overcast
4:49 AM 30.9 °F 27.5 °F 30.9 °F 100% 29.92 in 2.5 mi NE 3.5 mph - N/A   Overcast
4:56 AM 32.0 °F 28.7 °F 30.2 °F 93% 30.24 in 9.0 mi East 3.5 mph - N/A   Overcast
5:05 AM 32.0 °F - 32.0 °F 100% 30.25 in 1.5 mi Calm Calm - N/A   Overcast
5:15 AM 32.0 °F - 32.0 °F 100% 30.25 in 0.5 mi Calm Calm - N/A Fog Fog
5:51 AM 32.0 °F 28.7 °F 32.0 °F 100% 30.25 in 1.0 mi NE 3.5 mph - N/A   Mist
5:53 AM 32.0 °F 27.5 °F 32.0 °F 100% 29.97 in 1.0 mi NE 4.6 mph - N/A   Mist
6:10 AM 32.0 °F - 32.0 °F 100% 30.26 in 3.0 mi Calm Calm - N/A   Overcast
6:53 AM 30.0 °F - 30.0 °F 100% 30.03 in 9.0 mi Calm Calm - N/A   Mostly Cloudy
7:09 AM 30.2 °F 26.7 °F 30.2 °F 100% 30.27 in 2.5 mi NW 3.5 mph - N/A   Scattered Clouds
7:13 AM 30.2 °F 26.7 °F 30.2 °F 100% 30.27 in 0.8 mi NNW 3.5 mph - N/A   Mist
7:25 AM 30.2 °F 26.7 °F 30.2 °F 100% 30.27 in 0.2 mi NW 3.5 mph - N/A Fog Light Freezing Fog
7:37 AM 30.2 °F - 30.2 °F 100% 30.27 in 0.5 mi Calm Calm - N/A Fog Light Freezing Fog
7:48 AM 30.2 °F - 30.2 °F 100% 30.28 in 0.2 mi Calm Calm - N/A Fog Light Freezing Fog
7:53 AM 30.9 °F - 30.9 °F 100% 30.05 in 0.2 mi Calm Calm - N/A Fog Light Freezing Fog
8:53 AM 30.9 °F - 30.9 °F 100% 30.05 in 0.2 mi Calm Calm - N/A Fog Light Freezing Fog
9:14 AM 32.0 °F 27.5 °F 32.0 °F 100% 30.29 in 1.0 mi North 4.6 mph - N/A   Mist
9:18 AM 32.0 °F - 30.2 °F 93% 30.29 in 3.0 mi Calm Calm - N/A   Overcast
9:53 AM 36.0 °F 33.3 °F 34.0 °F 93% 30.03 in 10.0 mi Variable 3.5 mph - N/A   Mostly Cloudy
10:53 AM 43.0 °F - 34.0 °F 71% 29.98 in 10.0 mi Calm Calm - N/A   Clear
11:53 AM 46.0 °F 43.9 °F 26.1 °F 46% 29.96 in 10.0 mi Variable 4.6 mph - N/A   Partly Cloudy
12:53 PM 48.0 °F - 24.1 °F 39% 29.93 in 10.0 mi South 6.9 mph - N/A   Overcast
1:53 PM 48.0 °F - 25.0 °F 41% 29.94 in 10.0 mi Calm Calm - N/A   Overcast
2:53 PM 50.0 °F - 24.1 °F 36% 29.93 in 10.0 mi SSE 9.2 mph - N/A   Mostly Cloudy
3:53 PM 50.0 °F - 24.1 °F 36% 29.96 in 10.0 mi South 10.4 mph - N/A   Overcast
4:53 PM 48.0 °F - 30.0 °F 50% 29.98 in 10.0 mi WSW 5.8 mph - N/A   Overcast
5:36 PM 44.6 °F 36.4 °F 32.0 °F 61% 30.29 in 10.0 mi South 20.7 mph 29.9 mph N/A   Overcast
5:53 PM 42.1 °F 34.2 °F 34.0 °F 73% 30.04 in 10.0 mi South 16.1 mph 23.0 mph 0.00 in Rain Light Rain
6:53 PM 39.9 °F 36.7 °F 34.0 °F 79% 30.10 in 10.0 mi SW 4.6 mph - 0.00 in   Mostly Cloudy
7:53 PM 39.0 °F - 35.1 °F 86% 30.12 in 10.0 mi Calm Calm - N/A   Overcast
8:53 PM 36.0 °F 31.1 °F 33.1 °F 89% 30.12 in 10.0 mi ENE 5.8 mph - 0.00 in   Partly Cloudy
9:53 PM 35.1 °F 32.2 °F 32.0 °F 89% 30.10 in 10.0 mi East 3.5 mph - N/A   Clear
10:53 PM 32.0 °F 28.7 °F 28.9 °F 88% 30.08 in 10.0 mi NE 3.5 mph - N/A   Clear
11:53 PM 30.9 °F - 30.0 °F 96% 30.07 in 10.0 mi Calm Calm - N/A   Clear